User: anonymous   Login
Location: Columbia
(38.9520°N, 92.3340°W)
Time: 19:11:27
(UTC-05:00)
Language:

SJ-11-01 - Orbit

View from above orbital plane
View from above orbital plane
View from above satellite
View from above satellite

Ground track
Ground track

The orbit data is extracted from the following two-line orbital elements,

1 36088U 09061A   16270.79696007  .00000086  00000-0  27737-4 0  9995
2 36088  98.1780 316.8990 0011989  14.7523 345.4013 14.59872709366216
Epoch (UTC): 26 September 2016 19:07:37
Eccentricity: 0.0011989
inclination: 98.1780°
perigee height: 685 km
apogee height: 702 km
right ascension of ascending node: 316.8990°
argument of perigee: 14.7523°
revolutions per day: 14.59872709
mean anomaly at epoch: 345.4013°
orbit number at epoch: 36621

The dashed part of the orbit path shows where the satellite is in the earth's shadow,  

DLR